Weather History for Shahre-Kord, Iran

Change the Weather History Date:

Wednesday, February 13, 2013

  Actual Average Record
Temperature  
Mean Temperature 42 °F -  
Max Temperature 53 °F - - ()
Min Temperature 26 °F - - ()
Degree Days  
Heating Degree Days 23    
Moisture  
Dew Point 17 °F    
Average Humidity 41    
Maximum Humidity 75    
Minimum Humidity 8    
Precipitation  
Precipitation 0.00 in - - ()
Sea Level Pressure  
Sea Level Pressure 30.06 in    
Wind  
Wind Speed 5 mph ()    
Max Wind Speed 23 mph    
Max Gust Speed -    
Visibility 6.2 miles    
Events      
T = Trace of Precipitation, MM = Missing Value Source: Averaged Metar Reports

Daily Weather History Graph

Daily Weather History Graph

Search for Another Location

Airport:

Trip Planner

Search our weather history database for the weather conditions in past years. The results will help you decide how hot, cold, wet, or windy it might be!

Date:

Astronomy

Feb. 13, 2013 Rise Set
Actual Time 6:51 AM IRST 5:50 PM IRST
Civil Twilight 6:26 AM IRST 6:16 PM IRST
Nautical Twilight 5:57 AM IRST 6:44 PM IRST
Astronomical Twilight 5:28 AM IRST 7:13 PM IRST
Moon 8:22 AM IRST (2/13) 9:13 PM IRST (2/13)
Length of Visible Light 11h 50m
Length of Day
10h 59m
Waxing Crescent, 11% of the Moon is Illuminated
Feb 13
Waxing Crescent
Feb 18
First Quarter
Feb 25
Full
Mar 5
Last Quarter
Mar 11
New

Hourly Weather History & Observations

Time (IRST) Temp. Windchill Dew Point Humidity Pressure Visibility Wind Dir Wind Speed Gust Speed Precip Events Conditions
12:30 AM 33.8 °F - 26.6 °F 75% 30.09 in 6.2 mi Calm Calm - N/A   Partly Cloudy
1:30 AM 33.8 °F - 24.8 °F 70% 30.09 in 6.2 mi Calm Calm - N/A   Partly Cloudy
2:30 AM 33.8 °F - 26.6 °F 75% 30.09 in 6.2 mi Calm Calm - N/A   Partly Cloudy
3:30 AM 31 °F - 18 °F 46% 29.98 in 6 mi Calm Calm - -   Scattered Clouds
3:30 AM 32.0 °F - 17.6 °F 55% 30.06 in 6.2 mi Calm Calm - N/A   Partly Cloudy
4:30 AM 32.0 °F - 19.4 °F 60% 30.06 in 6.2 mi Calm Calm - N/A   Partly Cloudy
5:30 AM 32.0 °F - 19.4 °F 60% 30.06 in 6.2 mi Calm Calm - N/A   Partly Cloudy
6:30 AM 35.6 °F - 23.0 °F 60% 30.06 in 6.2 mi Calm Calm - N/A   Partly Cloudy
7:30 AM 37.4 °F - 23.0 °F 56% 30.09 in 6.2 mi Calm Calm - N/A   Partly Cloudy
8:30 AM 42.8 °F - 23.0 °F 46% 30.09 in 6.2 mi Calm Calm - N/A   Partly Cloudy
9:30 AM 46 °F - 22 °F 26% 30.01 in 6 mi South 15.7 mph - -   Scattered Clouds
9:30 AM 46.4 °F 39.8 °F 21.2 °F 37% 30.09 in 6.2 mi South 16.1 mph - N/A   Partly Cloudy
10:30 AM 48.2 °F - 19.4 °F 32% 30.09 in 6.2 mi South 11.5 mph - N/A   Partly Cloudy
11:30 AM 51.8 °F - 21.2 °F 30% 30.09 in 6.2 mi WSW 11.5 mph - N/A   Partly Cloudy
12:30 PM 51.8 °F - 14.0 °F 22% 30.06 in 6.2 mi West 20.7 mph - N/A   Partly Cloudy
1:30 PM 51.8 °F - 14.0 °F 22% 30.06 in 6.2 mi WSW 16.1 mph - N/A   Partly Cloudy
3:30 PM 53 °F - 10 °F 8% 29.95 in 6 mi West 17.9 mph - -   Scattered Clouds
3:30 PM 53.6 °F - 10.4 °F 18% 30.04 in 6.2 mi West 18.4 mph - N/A   Partly Cloudy
4:30 PM 50.0 °F - 12.2 °F 22% 30.06 in 6.2 mi West 23.0 mph - N/A   Partly Cloudy
5:30 PM 46.4 °F 38.7 °F 12.2 °F 25% 30.06 in 6.2 mi WSW 20.7 mph - N/A   Partly Cloudy
6:30 PM 41.0 °F 34.3 °F 12.2 °F 31% 30.06 in 6.2 mi West 11.5 mph - N/A   Partly Cloudy
7:30 PM 35.6 °F 28.6 °F 12.2 °F 38% 30.09 in - West 9.2 mph - N/A   Clear
8:30 PM 35.6 °F 28.6 °F 10.4 °F 35% 30.09 in - NNW 9.2 mph - N/A   Clear
9:30 PM 35 °F - 13 °F 27% 30.03 in 6 mi WSW 4.5 mph - -  
9:30 PM 35.6 °F 31.7 °F 14.0 °F 41% 30.09 in - West 4.6 mph - N/A   Clear
10:30 PM 33.8 °F 27.7 °F 14.0 °F 44% 30.09 in - NW 6.9 mph - N/A   Clear
11:30 PM 26.6 °F - 12.2 °F 55% 30.09 in - Calm Calm - N/A   Clear